• In France
  • List of Countries
  • For 7 days
  • Water Temperature
  • Satellite Maps
  • Weather Map
  • Weather Widgets
  • user-avatar
    Login

    Hourly Weather Veliko Tarnovo

    Today, 20 November, Monday

    Time Temperature Precipitation Wind Pressure Humidity
    00:00 +6°C° 0.5 mm 2 mps 734 mmHg 74%
    01:00 +5°C° 0.5 mm 3 mps 734 mmHg 74%
    02:00 +4°C° 0 mm 3 mps 734 mmHg 76%
    03:00 +4°C° 0.8 mm 3 mps 734 mmHg 77%
    04:00 +3°C° 0.8 mm 3 mps 734 mmHg 79%
    05:00 +3°C° 0.8 mm 4 mps 734 mmHg 81%
    06:00 +3°C° 0.9 mm 4 mps 734 mmHg 82%
    07:00 +3°C° 0.9 mm 4 mps 734 mmHg 83%
    08:00 +1°C° 0 mm 4 mps 734 mmHg 85%
    09:00 +3°C° 0.7 mm 4 mps 735 mmHg 84%
    10:00 +3°C° 0.7 mm 4 mps 735 mmHg 83%
    11:00 +3°C° 0.7 mm 4 mps 735 mmHg 82%
    12:00 +3°C° 0.2 mm 5 mps 735 mmHg 78%
    13:00 +3°C° 0.2 mm 5 mps 736 mmHg 74%
    14:00 +4°C° 0.2 mm 6 mps 736 mmHg 71%
    15:00 +3°C° 0 mm 5 mps 736 mmHg 70%
    16:00 +3°C° 0 mm 5 mps 736 mmHg 70%
    17:00 +4°C° 0 mm 4 mps 736 mmHg 69%
    18:00 +2°C° 0 mm 5 mps 736 mmHg 70%
    19:00 +2°C° 0 mm 5 mps 736 mmHg 72%
    20:00 +2°C° 0 mm 6 mps 737 mmHg 73%
    21:00 +1°C° 0 mm 6 mps 737 mmHg 73%
    22:00 +1°C° 0 mm 5 mps 738 mmHg 74%
    23:00 +1°C° 0 mm 5 mps 738 mmHg 75%

    Tomorrow, 21 November, Tuesday

    Time Temperature Precipitation Wind Pressure Humidity
    00:00 0°C° 0 mm 5 mps 738 mmHg 76%
    01:00 0°C° 0 mm 4 mps 739 mmHg 77%
    02:00 0°C° 0 mm 4 mps 739 mmHg 78%
    03:00 0°C° 0 mm 4 mps 739 mmHg 79%
    04:00 -1°C° 0 mm 4 mps 739 mmHg 79%
    05:00 0°C° 0 mm 3 mps 740 mmHg 80%
    06:00 0°C° 0 mm 3 mps 740 mmHg 79%
    07:00 0°C° 0 mm 3 mps 740 mmHg 79%
    08:00 0°C° 0 mm 3 mps 740 mmHg 78%
    09:00 +1°C° 0 mm 4 mps 740 mmHg 72%
    10:00 +3°C° 0 mm 4 mps 741 mmHg 67%
    11:00 +5°C° 0 mm 5 mps 741 mmHg 61%
    12:00 +5°C° 0 mm 5 mps 740 mmHg 58%
    13:00 +6°C° 0 mm 4 mps 740 mmHg 55%
    14:00 +7°C° 0 mm 4 mps 739 mmHg 52%
    15:00 +7°C° 0 mm 3 mps 739 mmHg 56%
    16:00 +6°C° 0 mm 2 mps 739 mmHg 60%
    17:00 +5°C° 0 mm 2 mps 739 mmHg 63%
    18:00 +5°C° 0 mm 2 mps 739 mmHg 64%
    19:00 +5°C° 0 mm 2 mps 739 mmHg 65%
    20:00 +5°C° 0 mm 2 mps 740 mmHg 65%
    21:00 +5°C° 0.1 mm 2 mps 740 mmHg 66%
    22:00 +5°C° 0.1 mm 2 mps 740 mmHg 68%
    23:00 +6°C° 0.1 mm 2 mps 740 mmHg 69%

    Day after tomorrow, 22 November, Wednesday

    Time Temperature Precipitation Wind Pressure Humidity
    00:00 +6°C° 0 mm 2 mps 740 mmHg 69%
    01:00 +6°C° 0 mm 2 mps 740 mmHg 70%
    02:00 +6°C° 0 mm 2 mps 740 mmHg 70%
    03:00 +6°C° 0 mm 2 mps 739 mmHg 70%
    04:00 +6°C° 0 mm 2 mps 739 mmHg 69%
    05:00 +6°C° 0 mm 2 mps 739 mmHg 69%
    06:00 +6°C° 0 mm 2 mps 739 mmHg 70%
    07:00 +6°C° 0 mm 2 mps 740 mmHg 70%
    08:00 +7°C° 0 mm 2 mps 740 mmHg 71%
    09:00 +8°C° 0 mm 3 mps 740 mmHg 67%
    10:00 +8°C° 0 mm 4 mps 740 mmHg 63%
    11:00 +10°C° 0 mm 5 mps 740 mmHg 58%
    12:00 +10°C° 0 mm 5 mps 740 mmHg 57%
    13:00 +12°C° 0 mm 4 mps 740 mmHg 57%
    14:00 +12°C° 0 mm 4 mps 740 mmHg 56%
    15:00 +11°C° 0 mm 4 mps 740 mmHg 61%
    16:00 +10°C° 0 mm 3 mps 740 mmHg 66%
    17:00 +9°C° 0 mm 2 mps 740 mmHg 70%
    18:00 +9°C° 0 mm 2 mps 740 mmHg 71%
    19:00 +10°C° 0 mm 1 mps 740 mmHg 72%
    20:00 +9°C° 0 mm 1 mps 741 mmHg 73%
    21:00 +9°C° 0 mm 1 mps 741 mmHg 73%
    22:00 +9°C° 0 mm 1 mps 741 mmHg 72%
    23:00 +9°C° 0 mm 1 mps 741 mmHg 72%

    23 November, Thursday

    Time Temperature Precipitation Wind Pressure Humidity
    00:00 +9°C° 0 mm 1 mps 741 mmHg 72%
    01:00 +8°C° 0 mm 1 mps 741 mmHg 72%
    02:00 +7°C° 0 mm 2 mps 741 mmHg 71%
    03:00 +7°C° 0 mm 2 mps 740 mmHg 71%
    04:00 +8°C° 0 mm 1 mps 740 mmHg 71%
    05:00 +8°C° 0 mm 1 mps 740 mmHg 70%
    06:00 +8°C° 0 mm 1 mps 741 mmHg 70%
    07:00 +8°C° 0 mm 1 mps 741 mmHg 69%
    08:00 +8°C° 0 mm 1 mps 741 mmHg 69%
    09:00 +10°C° 0 mm 1 mps 741 mmHg 63%
    10:00 +11°C° 0 mm 1 mps 742 mmHg 58%
    11:00 +13°C° 0 mm 2 mps 742 mmHg 52%
    12:00 +14°C° 0 mm 2 mps 742 mmHg 51%
    13:00 +14°C° 0 mm 2 mps 742 mmHg 50%
    14:00 +15°C° 0 mm 2 mps 742 mmHg 49%
    15:00 +14°C° 0 mm 2 mps 742 mmHg 54%
    16:00 +12°C° 0 mm 1 mps 742 mmHg 60%
    17:00 +10°C° 0 mm 0 mps 742 mmHg 65%
    18:00 +10°C° 0 mm 1 mps 742 mmHg 67%
    19:00 +10°C° 0 mm 1 mps 743 mmHg 68%
    20:00 +9°C° 0 mm 1 mps 743 mmHg 70%
    21:00 +9°C° 0 mm 1 mps 743 mmHg 70%
    22:00 +9°C° 0 mm 1 mps 744 mmHg 70%
    23:00 +9°C° 0 mm 1 mps 744 mmHg 70%

    24 November, Friday

    Time Temperature Precipitation Wind Pressure Humidity
    00:00 +8°C° 0 mm 1 mps 744 mmHg 71%
    01:00 +8°C° 0 mm 1 mps 744 mmHg 71%
    02:00 +8°C° 0 mm 1 mps 744 mmHg 71%
    03:00 +8°C° 0 mm 1 mps 744 mmHg 72%
    04:00 +7°C° 0 mm 1 mps 744 mmHg 72%
    05:00 +7°C° 0 mm 1 mps 744 mmHg 73%
    06:00 +7°C° 0 mm 1 mps 744 mmHg 73%
    07:00 +7°C° 0 mm 1 mps 744 mmHg 73%
    08:00 +7°C° 0 mm 1 mps 744 mmHg 73%
    09:00 +9°C° 0 mm 1 mps 744 mmHg 67%
    10:00 +11°C° 0 mm 1 mps 745 mmHg 62%
    11:00 +12°C° 0 mm 1 mps 745 mmHg 57%
    12:00 +13°C° 0 mm 1 mps 745 mmHg 56%
    13:00 +13°C° 0 mm 1 mps 744 mmHg 55%
    14:00 +14°C° 0 mm 1 mps 744 mmHg 54%
    15:00 +13°C° 0 mm 1 mps 744 mmHg 59%
    16:00 +11°C° 0 mm 1 mps 744 mmHg 64%
    17:00 +9°C° 0 mm 0 mps 744 mmHg 69%
    18:00 +10°C° 0 mm 1 mps 745 mmHg 71%
    19:00 +9°C° 0 mm 1 mps 745 mmHg 73%
    20:00 +9°C° 0 mm 1 mps 745 mmHg 75%
    21:00 +9°C° 0 mm 1 mps 746 mmHg 76%
    22:00 +8°C° 0 mm 1 mps 746 mmHg 77%
    23:00 +8°C° 0 mm 1 mps 746 mmHg 78%

    25 November, Saturday

    Time Temperature Precipitation Wind Pressure Humidity
    00:00 +8°C° 0 mm 1 mps 746 mmHg 79%
    01:00 +8°C° 0 mm 1 mps 746 mmHg 80%
    02:00 +7°C° 0 mm 1 mps 746 mmHg 80%
    03:00 +7°C° 0 mm 1 mps 746 mmHg 81%
    04:00 +7°C° 0 mm 1 mps 746 mmHg 82%
    05:00 +7°C° 0 mm 1 mps 746 mmHg 82%
    06:00 +7°C° 0 mm 1 mps 747 mmHg 82%
    07:00 +7°C° 0 mm 1 mps 747 mmHg 82%
    08:00 +7°C° 0 mm 1 mps 747 mmHg 82%
    09:00 +8°C° 0 mm 1 mps 747 mmHg 76%
    10:00 +10°C° 0 mm 1 mps 747 mmHg 70%
    11:00 +12°C° 0 mm 1 mps 747 mmHg 63%
    12:00 +13°C° 0 mm 1 mps 747 mmHg 61%
    13:00 +13°C° 0 mm 1 mps 747 mmHg 58%
    14:00 +14°C° 0 mm 1 mps 746 mmHg 55%
    15:00 +13°C° 0 mm 1 mps 746 mmHg 61%
    16:00 +12°C° 0 mm 1 mps 746 mmHg 66%
    17:00 +11°C° 0 mm 1 mps 746 mmHg 72%
    18:00 +10°C° 0 mm 1 mps 746 mmHg 75%
    19:00 +9°C° 0 mm 1 mps 746 mmHg 77%
    20:00 +8°C° 0 mm 2 mps 746 mmHg 80%
    21:00 +8°C° 0 mm 2 mps 746 mmHg 81%
    22:00 +7°C° 0 mm 2 mps 746 mmHg 81%
    23:00 +7°C° 0 mm 2 mps 746 mmHg 82%
    Show more